Weather History for EIWF - March, 2014

Change the Weather History Date:

Saturday, March 22, 2014

  Actual Average Record
Temperature  
Mean Temperature 44 °F -  
Max Temperature 50 °F - - ()
Min Temperature 37 °F - - ()
Degree Days  
Heating Degree Days 22    
Moisture  
Dew Point 35 °F    
Average Humidity 74    
Maximum Humidity 87    
Minimum Humidity 62    
Precipitation  
Precipitation 0.00 in - - ()
Sea Level Pressure  
Sea Level Pressure 29.49 in    
Wind  
Wind Speed 12 mph ()    
Max Wind Speed 18 mph    
Max Gust Speed 26 mph    
Visibility 6.2 miles    
Events Rain    
T = Trace of Precipitation, MM = Missing Value Source: Averaged Metar Reports

Daily Weather History Graph

Daily Weather History Graph

Search for Another Location

Airport or City:

Trip Planner

Search our weather history database for the weather conditions in past years. The results will help you decide how hot, cold, wet, or windy it might be!

Date:

Astronomy

Mar. 22, 2014 Rise Set
Actual Time 6:26 AM GMT 6:44 PM GMT
Civil Twilight 5:52 AM GMT 7:18 PM GMT
Nautical Twilight 5:12 AM GMT 7:59 PM GMT
Astronomical Twilight 4:30 AM GMT 8:41 PM GMT
Moon 12:25 AM GMT (3/22) 9:21 AM GMT (3/22)
Length of Visible Light 13h 25m
Length of Day
12h 18m
Waning Gibbous, 67% of the Moon is Illuminated
Mar 22
Waning Gibbous
Mar 24
Last Quarter
Mar 30
New
Apr 7
First Quarter
Apr 15
Full

Hourly Weather History & Observations

Time (GMT) Temp. Windchill Dew Point Humidity Pressure Visibility Wind Dir Wind Speed Gust Speed Precip Events Conditions
7:30 AM 39.2 °F 31.2 °F 33.8 °F 81% 29.39 in 6.2 mi West 13.8 mph - N/A   Scattered Clouds
8:00 AM 37.4 °F 28.9 °F 33.8 °F 87% 29.39 in 6.2 mi West 13.8 mph - N/A   Scattered Clouds
8:30 AM 39.2 °F 32.0 °F 35.6 °F 87% 29.39 in 6.2 mi WNW 11.5 mph - N/A   Scattered Clouds
9:00 AM 41.0 °F 35.2 °F 35.6 °F 81% 29.39 in 6.2 mi West 9.2 mph - N/A   Scattered Clouds
9:30 AM 42.8 °F 36.6 °F 35.6 °F 76% 29.42 in 6.2 mi NW 11.5 mph - N/A   Scattered Clouds
10:00 AM 42.8 °F 38.6 °F 35.6 °F 76% 29.42 in 6.2 mi WNW 6.9 mph - N/A   Scattered Clouds
10:30 AM 42.8 °F 38.0 °F 35.6 °F 76% 29.42 in 6.2 mi WNW 8.1 mph - N/A   Scattered Clouds
11:00 AM 44.6 °F 36.9 °F 35.6 °F 71% 29.42 in 6.2 mi NW 18.4 mph - N/A Rain Light Rain Showers
11:30 AM 44.6 °F 37.4 °F 35.6 °F 71% 29.42 in 6.2 mi WNW 16.1 mph - N/A   Scattered Clouds
12:00 PM 46.4 °F 39.5 °F 37.4 °F 71% 29.42 in 6.2 mi WNW 17.3 mph - N/A   Scattered Clouds
12:30 PM 48.2 °F - 39.2 °F 71% 29.44 in 6.2 mi West 12.7 mph - N/A   Scattered Clouds
1:00 PM 50.0 °F - 37.4 °F 62% 29.44 in 6.2 mi West 13.8 mph - N/A   Scattered Clouds
1:30 PM 42.8 °F 35.4 °F 37.4 °F 81% 29.47 in 6.2 mi NW 15.0 mph 26.5 mph N/A Rain Light Rain Showers
2:00 PM 42.8 °F 35.4 °F 35.6 °F 76% 29.47 in 6.2 mi NW 15.0 mph - N/A Rain Light Rain Showers
2:30 PM 42.8 °F 36.2 °F 37.4 °F 81% 29.50 in 6.2 mi WNW 12.7 mph 24.2 mph N/A   Scattered Clouds
3:00 PM 44.6 °F 38.1 °F 37.4 °F 76% 29.50 in 6.2 mi WNW 13.8 mph 26.5 mph N/A   Scattered Clouds
3:30 PM 44.6 °F 37.8 °F 35.6 °F 71% 29.50 in 6.2 mi NW 15.0 mph 26.5 mph N/A   Scattered Clouds
4:00 PM 42.8 °F 35.1 °F 35.6 °F 76% 29.50 in 6.2 mi NW 16.1 mph - N/A   Scattered Clouds
4:30 PM 44.6 °F 38.4 °F 35.6 °F 71% 29.53 in 6.2 mi NW 12.7 mph - N/A   Scattered Clouds
5:00 PM 46.4 °F 40.7 °F 35.6 °F 66% 29.53 in 6.2 mi NW 12.7 mph - N/A   Scattered Clouds
5:30 PM 44.6 °F 37.8 °F 33.8 °F 66% 29.56 in 6.2 mi NW 15.0 mph - N/A   Scattered Clouds
6:00 PM 42.8 °F 35.4 °F 32.0 °F 66% 29.56 in 6.2 mi NW 15.0 mph - N/A   Partly Cloudy
6:30 PM 42.8 °F 35.8 °F 32.0 °F 66% 29.59 in 6.2 mi NW 13.8 mph - N/A   Partly Cloudy
7:00 PM 42.8 °F 35.8 °F 32.0 °F 66% 29.59 in 6.2 mi NW 13.8 mph - N/A   Partly Cloudy
7:30 PM 41.0 °F 33.9 °F 32.0 °F 70% 29.62 in 6.2 mi NW 12.7 mph - N/A   Partly Cloudy
8:00 PM 39.2 °F 32.5 °F 32.0 °F 75% 29.62 in - WNW 10.4 mph - N/A   Clear
8:30 PM 39.2 °F 33.6 °F 32.0 °F 75% 29.62 in - West 8.1 mph - N/A   Clear